Location: Street
(51.1247°N, 2.7429°W)
Time: 08:44:41
(UTC+01:00)

X-37B - Pass Details

Date: 08 August 2021
Orbit: 381 x 393 km, 45.0° (Epoch: 29 August)

Event Time Altitude Azimuth Distance (km) Brightness Sun altitude
Exits shadow 04:09:43 23° 200° (SSW) 853 1.8 -12.9°
Maximum altitude 04:10:27 26° 176° (S) 793 1.8 -12.8°
Drops below altitude 10° 04:13:08 10° 117° (ESE) 1,397 3.6 -12.5°
Sets 04:15:23 0° 104° (ESE) 2,251 4.9 -12.3°
